Terminal Aerodrome Forecast
Issued by NWS Binghamton, NY

Home | Current Version | Previous Version | Text Only | Print | Product List | Glossary On
Versions: 1 2 3 4 5 6 7 8 9 10 11 12 13 14 15 16 17 18 19 20 21 22
394
FTUS41 KBGM 100535
TAFBGM
TAF
KBGM 100535Z 1006/1106 29007KT P6SM -SN FEW007 BKN015
      TEMPO 1006/1008 1SM -SHSN OVC007
     FM100900 28006KT P6SM BKN040
     FM101800 26008KT 2SM -SHSN OVC015
     FM102200 27007KT P6SM BKN020
     FM110000 27008KT P6SM BKN040=

USA.gov is the U.S. government's official web portal to all federal, state and local government web resources and services.